CW1394 Weather Reports


time (UTC)temp
C
wind
direction
speed
KPH
gust
KPH
rain 1hr
cm
rain 24hr
cm
rain mn
cm
humidity
%
barometer
mb
20260505091404 9 248 8.0 27.4 0.00 0.00 0.00 92 1013.4
20260505090404 9 225 14.5 27.4 0.00 0.00 0.00 92 1013.4
20260505085904 9 235 9.7 27.4 0.00 0.00 0.00 92 1013.4
20260505085404 9 252 11.3 27.4 0.00 0.00 0.00 92 1013.4
20260505084905 9 268 9.7 24.1 0.00 0.00 0.00 92 1013.4
20260505083904 9 260 8.0 25.7 0.00 0.00 0.00 92 1013.4
20260505083405 9 258 12.9 25.7 0.00 0.00 0.00 92 1013.4
20260505082904 9 264 8.0 22.5 0.00 0.00 0.00 92 1013.2
20260505082405 9 267 9.7 27.4 0.00 0.00 0.00 92 1013.2
20260505081904 9 264 11.3 27.4 0.00 0.00 0.00 92 1013.2
20260505081404 9 261 8.0 27.4 0.00 0.00 0.00 92 1013.1
20260505080905 9 259 9.7 24.1 0.00 0.00 0.00 92 1013.1
20260505080405 9 259 9.7 25.7 0.00 0.00 0.00 92 1013.1
20260505075905 9 275 8.0 32.2 0.00 0.00 0.00 92 1013.1
20260505075404 9 277 14.5 32.2 0.00 0.00 0.00 92 1013.1
20260505074904 9 239 14.5 32.2 0.00 0.00 0.00 92 1013.1
20260505074404 9 253 11.3 35.4 0.00 0.00 0.00 92 1013.0
20260505073405 9 250 11.3 38.6 0.00 0.00 0.00 92 1012.7
20260505072904 9 234 14.5 38.6 0.00 0.00 0.00 92 1012.7
20260505072404 9 256 14.5 27.4 0.00 0.00 0.00 92 1012.7
20260505071404 9 258 11.3 32.2 0.00 0.00 0.00 92 1012.7
20260505070904 9 246 9.7 32.2 0.00 0.00 0.00 92 1012.5
20260505070404 9 265 9.7 27.4 0.00 0.00 0.00 92 1012.5
20260505065905 9 241 9.7 37.0 0.00 0.00 0.00 92 1012.5
20260505065405 9 247 12.9 37.0 0.00 0.00 0.00 92 1012.5
20260505064904 9 271 9.7 35.4 0.00 0.00 0.00 92 1012.5
20260505064405 9 265 12.9 35.4 0.00 0.00 0.00 92 1012.5
20260505063905 9 238 11.3 35.4 0.00 0.00 0.00 92 1012.3
20260505062904 9 252 11.3 37.0 0.00 0.00 0.00 92 1012.3
20260505062405 9 259 9.7 37.0 0.00 0.00 0.00 92 1012.1
20260505061906 9 243 11.3 37.0 0.00 0.00 0.00 92 1012.1
20260505061406 9 238 17.7 37.0 0.00 0.00 0.00 91 1012.1
20260505060905 9 247 11.3 38.6 0.00 0.00 0.00 91 1012.0
20260505060406 9 241 14.5 51.5 0.00 0.00 0.00 91 1012.0
20260505055905 9 246 16.1 51.5 0.00 0.00 0.00 91 1012.0
20260505055405 9 236 20.9 51.5 0.00 0.00 0.00 91 1011.7
20260505054907 9 238 14.5 46.7 0.00 0.00 0.00 91 1011.7
20260505053906 9 260 11.3 37.0 0.00 0.00 0.00 91 1011.5
20260505053406 9 244 12.9 37.0 0.00 0.00 0.00 91 1011.5
20260505052905 9 255 12.9 38.6 0.00 0.00 0.00 91 1011.6
20260505052405 9 248 12.9 38.6 0.00 0.00 0.00 91 1011.6
20260505050905 10 255 9.7 38.6 0.00 0.00 0.00 90 1011.3
20260505041405 10 242 16.1 35.4 0.00 0.00 0.00 87 1010.7
20260505040406 10 267 12.9 49.9 0.00 0.00 0.00 87 1010.7
20260505035904 10 269 14.5 49.9 0.00 0.00 0.00 86 1010.7
20260505035406 10 275 14.5 35.4 0.00 0.00 0.00 86 1010.7
20260505034404 10 263 16.1 38.6 0.00 0.00 0.00 85 1010.7
20260505033905 11 263 17.7 41.8 0.00 0.00 0.00 84 1010.7
20260505033407 11 271 19.3 41.8 0.00 0.00 0.00 84 1010.7
20260505032904 11 237 17.7 37.0 0.00 0.00 0.00 83 1010.7
20260505032404 11 255 11.3 37.0 0.00 0.00 0.00 82 1010.7
20260505031907 11 241 12.9 27.4 0.00 0.00 0.00 82 1010.7
20260505031404 11 263 11.3 29.0 0.00 0.00 0.00 81 1010.7
20260505030407 11 248 11.3 35.4 0.00 0.00 0.00 81 1010.5
20260505025906 11 251 16.1 38.6 0.00 0.00 0.00 80 1010.5
20260505025405 12 263 14.5 38.6 0.00 0.00 0.00 80 1010.9
20260505024906 12 229 20.9 37.0 0.00 0.00 0.00 79 1010.9
20260505024405 12 233 12.9 37.0 0.00 0.00 0.00 79 1010.9
20260505022905 12 239 14.5 37.0 0.00 0.00 0.00 78 1010.9
20260505022404 12 235 20.9 45.1 0.00 0.00 0.00 78 1010.9
20260505021905 12 257 20.9 45.1 0.00 0.00 0.00 77 1010.9
20260505021406 12 247 14.5 37.0 0.00 0.00 0.00 77 1010.9
20260505020905 12 234 9.7 37.0 0.00 0.00 0.00 76 1010.9
20260505020404 12 239 16.1 41.8 0.00 0.00 0.00 76 1010.9
20260505015906 12 246 14.5 41.8 0.00 0.00 0.00 76 1010.9
20260505015405 12 262 14.5 41.8 0.00 0.00 0.00 75 1010.9
20260505014404 13 229 11.3 35.4 0.00 0.00 0.00 75 1010.9
20260505013904 13 229 11.3 41.8 0.00 0.00 0.00 75 1010.9
20260505013405 13 258 17.7 41.8 0.00 0.00 0.00 74 1011.0
20260505012904 13 224 16.1 37.0 0.00 0.00 0.00 74 1011.0
20260505012406 13 237 19.3 37.0 0.00 0.00 0.00 73 1011.0
20260505011905 13 214 12.9 35.4 0.00 0.00 0.00 72 1011.0
20260505010906 13 219 14.5 37.0 0.00 0.00 0.00 71 1011.0
20260505010404 14 240 16.1 37.0 0.00 0.00 0.00 71 1011.0
20260505005906 14 200 11.3 35.4 0.00 0.00 0.00 70 1011.0
20260505005404 14 199 14.5 35.4 0.00 0.00 0.00 70 1011.0
20260505004905 14 212 11.3 29.0 0.00 0.00 0.00 70 1011.0
20260505004404 14 211 14.5 37.0 0.00 0.00 0.00 71 1011.0
20260505003906 15 217 12.9 37.0 0.00 0.00 0.00 70 1010.9
20260505003406 15 220 14.5 32.2 0.00 0.00 0.00 70 1011.0
20260505002905 15 206 11.3 37.0 0.00 0.00 0.00 69 1011.0
20260505002405 15 241 11.3 37.0 0.00 0.00 0.00 70 1011.0
20260505001905 15 225 12.9 38.6 0.00 0.00 0.00 69 1011.0
20260505000905 15 269 14.5 37.0 0.00 0.00 0.00 69 1011.0
20260505000406 15 218 14.5 37.0 0.00 0.00 0.00 69 1011.0
20260504235906 15 248 11.3 37.0 0.00 0.00 0.00 69 1011.0
20260504234904 16 256 12.9 32.2 0.00 0.00 0.00 68 1011.0
20260504233904 16 268 11.3 35.4 0.00 0.00 0.00 68 1011.0
20260504232904 16 252 8.0 29.0 0.00 0.00 0.00 69 1011.0
20260504231906 16 240 8.0 27.4 0.00 0.00 0.00 70 1011.0
20260504231404 16 265 14.5 32.2 0.00 0.00 0.00 68 1011.1
20260504230904 16 254 14.5 32.2 0.00 0.00 0.00 68 1011.4
20260504230404 16 249 8.0 24.1 0.00 0.00 0.00 68 1011.4
20260504225904 16 265 6.4 19.3 0.00 0.00 0.00 69 1011.4
20260504225406 16 256 8.0 24.1 0.00 0.00 0.00 69 1011.5
20260504223404 16 259 8.0 29.0 0.00 0.00 0.00 69 1011.5
20260504222905 16 258 11.3 29.0 0.00 0.00 0.00 67 1011.5
20260504221904 16 268 8.0 27.4 0.00 0.00 0.00 68 1011.5
20260504221406 16 274 8.0 27.4 0.00 0.00 0.00 69 1011.8
20260504220404 16 272 9.7 22.5 0.00 0.00 0.00 70 1011.8
20260504215905 16 251 8.0 22.5 0.00 0.00 0.00 69 1011.8
20260504215405 16 225 8.0 22.5 0.00 0.00 0.00 68 1011.8
20260504214905 16 289 8.0 27.4 0.00 0.00 0.00 67 1011.9
20260504213404 16 280 4.8 22.5 0.00 0.00 0.00 69 1011.9
20260504212904 16 268 6.4 22.5 0.00 0.00 0.00 68 1011.9
20260504212404 16 281 8.0 20.9 0.00 0.00 0.00 69 1011.9
20260504211904 16 265 9.7 20.9 0.00 0.00 0.00 68 1011.9
20260504211404 16 239 4.8 19.3 0.00 0.00 0.00 67 1011.9
20260504210904 16 260 4.8 24.1 0.00 0.00 0.00 67 1011.9
20260504210404 17 265 8.0 25.7 0.00 0.00 0.00 67 1011.9
20260504205906 17 278 11.3 25.7 0.00 0.00 0.00 66 1011.9
20260504205405 17 255 6.4 22.5 0.00 0.00 0.00 66 1011.9
20260504204906 17 278 9.7 22.5 0.00 0.00 0.00 66 1011.9
20260504204406 17 286 8.0 25.7 0.00 0.00 0.00 64 1011.9
20260504203905 17 277 8.0 25.7 0.00 0.00 0.00 63 1011.9
20260504203406 17 266 8.0 12.9 0.00 0.00 0.00 63 1011.9
20260504202405 17 280 6.4 24.1 0.00 0.00 0.00 63 1011.9
20260504201905 17 293 6.4 19.3 0.00 0.00 0.00 62 1011.9
20260504201405 17 267 6.4 16.1 0.00 0.00 0.00 61 1011.9
20260504200904 18 233 9.7 16.1 0.00 0.00 0.00 60 1011.9
20260504200405 18 259 6.4 24.1 0.00 0.00 0.00 61 1011.9
20260504195905 18 247 3.2 24.1 0.00 0.00 0.00 61 1011.9
20260504195405 18 288 8.0 24.1 0.00 0.00 0.00 58 1011.9
20260504194904 18 274 8.0 22.5 0.00 0.00 0.00 55 1011.9
20260504194404 19 291 8.0 20.9 0.00 0.00 0.00 55 1011.9
20260504193907 19 285 6.4 24.1 0.00 0.00 0.00 54 1011.9
20260504193404 19 277 3.2 24.1 0.00 0.00 0.00 55 1011.9
20260504192405 20 293 12.9 24.1 0.00 0.00 0.00 49 1011.9
20260504191904 22 279 11.3 22.5 0.00 0.00 0.00 48 1011.6
20260504191404 23 282 9.7 20.9 0.00 0.00 0.00 48 1011.6
20260504190906 24 293 8.0 20.9 0.00 0.00 0.00 47 1011.6
20260504190404 24 290 8.0 12.9 0.00 0.00 0.00 47 1011.6
20260504185904 24 303 4.8 9.7 0.00 0.00 0.00 47 1011.8
20260504184906 23 304 4.8 8.0 0.00 0.00 0.00 48 1011.8
20260504183906 23 297 1.6 3.2 0.00 0.00 0.00 45 1011.8
20260504183404 23 297 3.2 3.2 0.00 0.00 0.00 48 1011.8
20260504182905 23 297 1.6 3.2 0.00 0.00 0.00 46 1011.9
20260504182405 23 297 1.6 3.2 0.00 0.00 0.00 44 1011.9
20260504181904 23 297 1.6 3.2 0.00 0.00 0.00 46 1011.9
20260504180905 23 297 1.6 3.2 0.00 0.00 0.00 45 1012.0
20260504180404 23 297 1.6 4.8 0.00 0.00 0.00 46 1012.0
20260504175405 22 297 3.2 4.8 0.00 0.00 0.00 47 1011.9
20260504174904 22 297 3.2 4.8 0.00 0.00 0.00 45 1011.9
20260504174405 23 297 1.6 4.8 0.00 0.00 0.00 45 1011.9
20260504173904 23 297 1.6 4.8 0.00 0.00 0.00 44 1011.9
20260504173404 23 297 3.2 4.8 0.00 0.00 0.00 47 1011.9
20260504172905 23 299 1.6 4.8 0.00 0.00 0.00 47 1012.0
20260504172405 23 307 3.2 4.8 0.00 0.00 0.00 44 1012.0
20260504171405 22 307 1.6 4.8 0.00 0.00 0.00 46 1012.0
20260504170406 22 307 3.2 4.8 0.00 0.00 0.00 48 1012.0
20260504160408 21 340 3.2 9.7 0.00 0.00 0.00 50 1011.1
20260504150905 18 280 1.6 8.0 0.00 0.00 0.00 50 1011.0
20260504150406 17 280 1.6 8.0 0.00 0.00 0.00 57 1010.8
20260504140905 13 195 9.7 9.7 0.00 0.00 0.00 64 1010.5
20260504140404 13 198 9.7 9.7 0.00 0.00 0.00 63 1010.5
20260504130405 11 183 12.9 14.5 0.00 0.00 0.00 66 1010.1
20260504110404 11 168 8.0 9.7 0.00 0.00 0.00 67 1010.0
20260504100404 11 187 4.8 8.0 0.00 0.00 0.00 67 1010.0